Location: West Chester
(39.9610°N, 75.6060°W)
Time: 12:51:59
(UTC-04:00)

Tiangong - Visible Passes

Search period start: 08 September 2024 00:00
Search period end: 18 September 2024 00:00
Orbit: 376 x 378 km, 41.5° (Epoch: 08 September)

Date Brightness Start Highest point End Pass type
(mag) Time Alt. Az. Time Alt. Az. Time Alt. Az.
08 Sep -2.3 04:57:48 84° SE 04:57:48 84° SE 05:00:51 10° ESE visible
09 Sep -1.5 05:31:09 27° WSW 05:32:13 37° SSW 05:35:07 10° SE visible
10 Sep 0.5 04:32:28 16° ESE 04:32:28 16° ESE 04:33:10 10° ESE visible
10 Sep -0.1 06:04:39 10° WSW 06:06:20 14° SW 06:08:01 10° S visible
11 Sep 0.1 05:05:54 16° SSE 05:05:54 16° SSE 05:06:47 10° SSE visible
15 Sep 0.4 20:35:47 10° S 20:35:58 11° S 20:35:58 11° S visible
16 Sep 0.6 21:08:05 10° SW 21:08:32 13° SW 21:08:32 13° SW visible
17 Sep -0.9 20:05:23 10° SSW 20:07:58 24° SSE 20:08:46 22° SE visible
